Miscellaneous Local Product
Issued by NWS Hastings, NE

Home | Current Version | Previous Version | Graphics & Text | Print | Product List | Glossary On
Versions: 1 2 3 4 5 6 7 8 9 10 11 12 13 14 15 16 17 18 19 20 21 22 23 24 25 26 27 28 29 30 31 32 33 34 35 36 37 38 39 40 41 42 43 44 45 46 47 48 49 50
000
AXUS43 KGID 051002
MISGRI

GID CWA HOURLY WEATHER ROUNDUP
NATIONAL WEATHER SERVICE HASTINGS NE
500 AM CDT THU MAY 05 2016

NOTE: "FAIR" INDICATES FEW OR NO CLOUDS BELOW 12,000 FEET WITH NO
SIGNIFICANT WEATHER AND/OR OBSTRUCTIONS TO VISIBILITY.

...SOUTH CENTRAL NEBRASKA...

CITY           SKY/WX    TMP DP  RH WIND       PRES   REMARKS
GRAND ISLAND   CLEAR     41  36  82 W5        30.08S
HASTINGS       PTCLDY    43  35  73 CALM      30.07S
KEARNEY        PTCLDY    45  36  70 W3        30.10R
ORD            CLEAR     38  36  92 CALM      30.07S
YORK           CLEAR     39  36  87 W5        30.07R
AURORA         CLEAR     42  35  76 W6        30.07S
LEXINGTON      CLEAR     41  38  87 CALM      30.10R
HOLDREGE       CLEAR     44  38  77 CALM      30.09S
HEBRON         CLEAR     43  37  78 W3        30.06S

...NEBRASKA PANHANDLE...

CITY           SKY/WX    TMP DP  RH WIND       PRES   REMARKS
CHADRON        CLEAR     49  41  74 SW5       30.00F
ALLIANCE       CLEAR     42  39  89 SE6       30.06S
SCOTTSBLUFF    CLEAR     48  40  73 E7        30.06F
SIDNEY         CLEAR     50  41  71 SW13      30.09F

...WESTERN AND NORTH CENTRAL NEBRASKA...

CITY           SKY/WX    TMP DP  RH WIND       PRES   REMARKS
VALENTINE      CLEAR     50  37  61 S3        30.05F
AINSWORTH      CLEAR     43  37  77 S6        30.07S
ONEILL         CLEAR     45  44  96 SW6       30.06S
BROKEN BOW     PTCLDY    39  36  89 CALM      30.08S
IMPERIAL       CLEAR     47  41  80 CALM      30.09S
NORTH PLATTE   CLEAR     39  36  89 E3        30.09S
MCCOOK         CLEAR     44  40  85 CALM      30.09S

...EASTERN NEBRASKA...

CITY           SKY/WX    TMP DP  RH WIND       PRES   REMARKS
NORFOLK        CLEAR     43  36  76 W5        30.05R
SO SIOUX CITY  CLEAR     42  36  79 NW3       30.03S
TEKAMAH        CLEAR     44  39  82 CALM      30.03R
COLUMBUS       CLEAR     39  30  70 CALM      30.06R
ALBION         CLEAR     37  33  88 NW3       30.06S
OMAHA EPPLEY   CLEAR     45  42  89 N3        30.03R
OFFUTT AFB     CLEAR     45  41  86 NW7       30.02R
MILLARD        CLEAR     45  41  86 CALM      30.03S
LINCOLN        CLEAR     46  40  79 CALM      30.06R
NEBRASKA CITY  CLEAR     49  37  62 NW8       30.02S
BEATRICE       CLEAR     42  39  88 W3        30.05S
FALLS CITY     CLEAR     45  39  79 W6        30.02R

...NORTHERN KANSAS...

CITY           SKY/WX    TMP DP  RH WIND       PRES   REMARKS
GOODLAND       CLEAR     52  42  69 SW12      30.10S
HILL CITY      CLEAR     43  40  89 W3        30.10S
NORTON         SUNNY     45  37  76 CALM      30.09
PHILLIPSBURG   CLEAR     43  41  93 W3        30.09S
SMITH CENTER   CLEAR     36  36 100 NW6       30.10S WCI  31
BELOIT         CLEAR     39  37  93 CALM      30.07R
HAYS           CLEAR     43  34  70 NW5       30.09S
RUSSELL        CLEAR     49  41  74 W7        30.07S
CONCORDIA      CLEAR     44  37  76 W8        30.07R
SALINA         CLEAR     45  39  79 CALM      30.07R
TOPEKA         CLEAR     48  42  80 CALM      30.03S



USA.gov is the U.S. government's official web portal to all federal, state and local government web resources and services.